EXPRESS-AM7

Last updated on Sun Nov 16 2025 00:03:42 GMT+0000 (Coordinated Universal Time)

1 40505U 15012A 25319.46006855 .00000158 00000+0 00000+0 0 9999 2 40505 0.0187 285.9001 0003171 322.5753 11.9630 1.00269899 38865
UTC large
Height (km)
Speed (km/s)
/
Latitude / Longitude
Inclination (degrees)
Orbital Period (minutes)
Azimuth
Elevation
Range (km)
Doppler Factor

Next 0 passes for location: London (51.5072 / 0.1276)

Sorry there are no passes over London.